Location: Newark
(33.6439°N, 114.9881°W)
Time: 06:33:19
(UTC+00:00)

Explorer 11/Cluster Stage 4 - All Passes

Search period start: 19 July 2019 00:00
Search period end: 29 July 2019 00:00
Orbit: 467 x 1260 km, 28.8° (Epoch: 18 July)

Date Brightness Start Highest point End Pass type
(mag) Time Alt. Az. Time Alt. Az. Time Alt. Az.
19 Jul - 07:47:21 10° SSW 07:52:02 21° SSE 07:57:16 10° ESE visible
19 Jul - 09:33:36 10° SW 09:40:21 46° SSE 09:48:01 10° E visible
19 Jul - 11:21:46 10° WSW 11:29:25 63° S 11:37:35 10° E visible
19 Jul - 13:10:46 10° W 13:18:40 53° SSW 13:26:25 10° ESE daylight
19 Jul - 15:00:43 10° W 15:07:28 29° SSW 15:13:45 10° SSE daylight
20 Jul - 07:36:25 10° SSW 07:41:11 23° SSE 07:46:39 10° ESE visible
20 Jul - 09:22:55 10° WSW 09:29:31 49° SSE 09:37:11 10° E visible
20 Jul - 11:11:05 10° WSW 11:18:35 62° S 11:26:45 10° ESE visible
20 Jul - 13:00:03 10° W 13:07:48 50° SSW 13:15:35 10° ESE daylight
20 Jul - 14:50:05 10° W 14:56:34 26° SSW 15:02:43 10° SSE daylight
21 Jul - 07:25:35 10° SSW 07:30:23 25° SSE 07:35:57 10° E visible
21 Jul - 09:12:16 10° WSW 09:18:43 51° SSE 09:26:19 10° E visible
21 Jul - 11:00:26 10° W 11:07:45 62° S 11:15:54 10° ESE visible
21 Jul - 12:49:20 10° W 12:56:56 47° SSW 13:04:40 10° SE daylight
21 Jul - 14:39:32 10° WSW 14:45:40 23° SSW 14:51:35 10° SSE daylight
22 Jul - 07:14:49 10° SSW 07:19:35 27° SSE 07:25:14 10° E night (unlit)
22 Jul - 09:01:39 10° WSW 09:07:55 53° SSE 09:15:27 10° E visible
22 Jul - 10:49:48 10° W 10:56:57 60° S 11:05:00 10° ESE visible
22 Jul - 12:38:42 10° W 12:46:03 43° SSW 12:53:44 10° SE daylight
22 Jul - 14:29:05 10° WSW 14:34:45 21° SSW 14:40:20 10° SSE daylight
23 Jul - 07:04:06 10° SSW 07:08:49 29° SSE 07:14:28 10° E night (unlit)
23 Jul - 08:51:05 10° WSW 08:57:10 54° S 09:04:33 10° E visible
23 Jul - 10:39:13 10° W 10:46:08 58° S 10:54:06 10° ESE visible
23 Jul - 12:28:05 10° W 12:35:11 40° SSW 12:42:43 10° SE daylight
23 Jul - 14:18:45 10° WSW 14:23:52 18° SSW 14:28:56 10° S daylight
24 Jul - 06:53:28 10° SW 06:58:05 31° SSE 07:03:41 10° E night (unlit)
24 Jul - 08:40:34 10° WSW 08:46:26 55° S 08:53:40 10° E visible
24 Jul - 10:28:40 10° W 10:35:21 56° S 10:43:09 10° ESE visible
24 Jul - 12:17:32 10° W 12:24:19 36° SSW 12:31:39 10° SE visible
24 Jul - 14:08:37 10° WSW 14:12:58 15° SSW 14:17:20 10° S daylight
25 Jul - 06:42:51 10° SW 06:47:23 33° SSE 06:52:54 10° E night (unlit)
25 Jul - 08:30:03 10° WSW 08:35:43 56° S 08:42:46 10° E visible
25 Jul - 10:18:08 10° W 10:24:34 53° S 10:32:12 10° ESE visible
25 Jul - 12:07:02 10° W 12:13:28 32° SSW 12:20:31 10° SE visible
25 Jul - 13:58:49 10° SW 14:02:04 13° SSW 14:05:23 10° S daylight
26 Jul - 04:48:03 10° SSE 04:49:07 11° SSE 04:50:12 10° SE night (unlit)
26 Jul - 06:32:18 10° SW 06:36:42 35° SSE 06:42:07 10° E night (unlit)
26 Jul - 08:19:34 10° WSW 08:25:02 56° S 08:31:52 10° E visible
26 Jul - 10:07:37 10° W 10:13:49 49° S 10:21:12 10° ESE visible
26 Jul - 11:56:36 10° WSW 12:02:38 28° SSW 12:09:18 10° SSE visible
26 Jul - 13:50:03 10° SW 13:51:13 10° SSW 13:52:23 10° SSW daylight
27 Jul - 04:36:43 10° S 04:38:26 12° SSE 04:40:15 10° SE night (unlit)
27 Jul - 06:21:47 10° SW 06:26:03 36° SSE 06:31:20 10° E night (unlit)
27 Jul - 08:09:07 10° WSW 08:14:22 55° S 08:20:57 10° ESE visible
27 Jul - 09:57:10 10° W 10:03:05 45° SSW 10:10:11 10° ESE visible
27 Jul - 11:46:14 10° WSW 11:51:49 25° SSW 11:57:59 10° SSE visible
28 Jul - 04:25:41 10° S 04:27:46 14° SSE 04:30:01 10° ESE visible
28 Jul - 06:11:17 10° SW 06:15:26 38° SSE 06:20:33 10° E night (unlit)
28 Jul - 07:58:41 10° WSW 08:03:43 53° S 08:10:03 10° ESE night (unlit)
28 Jul - 09:46:44 10° W 09:52:21 41° SSW 09:59:08 10° SE visible
28 Jul - 11:36:00 10° WSW 11:41:01 21° SSW 11:46:34 10° SSE visible
